Weather History for Sidney-Richland, MT

Change the Weather History Date:

Saturday, November 5, 2011

  Actual Average Record
Temperature  
Mean Temperature 32 °F -  
Max Temperature 39 °F 47 °F 70 °F (1914)
Min Temperature 26 °F 23 °F -5 °F (1959)
Degree Days  
Heating Degree Days 32    
Moisture  
Dew Point 25 °F    
Average Humidity 73    
Maximum Humidity 93    
Minimum Humidity 60    
Precipitation  
Precipitation 0.00 in - - ()
Sea Level Pressure  
Sea Level Pressure 29.49 in    
Wind  
Wind Speed 11 mph (NNW)    
Max Wind Speed 22 mph    
Max Gust Speed 29 mph    
Visibility 9 miles    
Events      
Averages and records for this station are not official NWS values.
T = Trace of Precipitation, MM = Missing Value Source: NWS Daily Summary

Daily Weather History Graph

Daily Weather History Graph

Search for Another Location

Airport:

Trip Planner

Search our weather history database for the weather conditions in past years. The results will help you decide how hot, cold, wet, or windy it might be!

Date:

Astronomy

Nov. 05, 2011 Rise Set
Actual Time 7:46 AM MDT 5:33 PM MDT
Civil Twilight 7:14 AM MDT 6:05 PM MDT
Nautical Twilight 6:37 AM MDT 6:42 PM MDT
Astronomical Twilight 6:01 AM MDT 7:18 PM MDT
Moon 3:08 PM MDT (11/5) 2:40 AM MDT (11/5)
Length of Visible Light 10h 51m
Length of Day
9h 46m
Waxing Gibbous, 78% of the Moon is Illuminated
Nov 5
Waxing Gibbous
Nov 10
Full
Nov 18
Last Quarter
Nov 24
New
Dec 2
First Quarter

Hourly Weather History & Observations

Time (MDT) Temp. Windchill Dew Point Humidity Pressure Visibility Wind Dir Wind Speed Gust Speed Precip Events Conditions
12:35 AM 33.8 °F 26.4 °F 21.2 °F 60% 29.54 in 10.0 mi North 9.2 mph - N/A   Clear
12:55 AM 33.8 °F 27.0 °F 21.2 °F 60% 29.53 in 10.0 mi NNW 8.1 mph - N/A   Clear
1:35 AM 32.0 °F 24.8 °F 21.2 °F 64% 29.55 in 10.0 mi NNW 8.1 mph - N/A   Clear
2:15 AM 33.8 °F 27.0 °F 21.2 °F 60% 29.54 in 10.0 mi North 8.1 mph - N/A   Clear
2:35 AM 33.8 °F 27.7 °F 21.2 °F 60% 29.55 in 10.0 mi North 6.9 mph - N/A   Clear
2:55 AM 32.0 °F 24.8 °F 21.2 °F 64% 29.53 in 10.0 mi North 8.1 mph - N/A   Clear
3:35 AM 33.8 °F 26.4 °F 21.2 °F 60% 29.54 in 10.0 mi NW 9.2 mph - N/A   Clear
3:55 AM 30.2 °F 20.8 °F 21.2 °F 69% 29.54 in 10.0 mi NW 11.5 mph - N/A   Clear
4:15 AM 30.2 °F 20.8 °F 21.2 °F 69% 29.54 in 10.0 mi NW 11.5 mph - N/A   Clear
4:55 AM 30.2 °F 23.4 °F 21.2 °F 69% 29.53 in 10.0 mi NNW 6.9 mph - N/A   Clear
5:35 AM 30.2 °F 24.3 °F 23.0 °F 75% 29.52 in 10.0 mi North 5.8 mph - N/A   Clear
5:55 AM 28.4 °F 21.2 °F 21.2 °F 74% 29.52 in 10.0 mi North 6.9 mph - N/A   Clear
6:15 AM 28.4 °F 22.2 °F 23.0 °F 80% 29.51 in 10.0 mi NNW 5.8 mph - N/A   Clear
6:55 AM 28.4 °F 21.2 °F 23.0 °F 80% 29.50 in 10.0 mi NNW 6.9 mph - N/A   Clear
7:15 AM 28.4 °F 24.6 °F 21.2 °F 74% 29.50 in 10.0 mi NE 3.5 mph - N/A   Clear
7:35 AM 28.4 °F 21.2 °F 23.0 °F 80% 29.50 in 10.0 mi NNW 6.9 mph - N/A   Clear
7:55 AM 28.4 °F 20.4 °F 21.2 °F 74% 29.50 in 10.0 mi NW 8.1 mph - N/A   Clear
8:15 AM 26.6 °F 17.5 °F 21.2 °F 80% 29.50 in 10.0 mi NW 9.2 mph - N/A   Clear
8:35 AM 28.4 °F 17.0 °F 23.0 °F 80% 29.47 in 10.0 mi NNW 15.0 mph - N/A   Clear
8:55 AM 28.4 °F 18.5 °F 23.0 °F 80% 29.48 in 10.0 mi NNW 11.5 mph - N/A   Clear
9:15 AM 30.2 °F 22.6 °F 23.0 °F 75% 29.49 in 10.0 mi North 8.1 mph - N/A   Clear
9:35 AM 30.2 °F 21.3 °F 24.8 °F 80% 29.48 in 10.0 mi North 10.4 mph - N/A   Clear
9:55 AM 32.0 °F 22.5 °F 24.8 °F 75% 29.46 in 10.0 mi NNW 12.7 mph - N/A   Clear
10:15 AM 32.0 °F 23.6 °F 24.8 °F 75% 29.47 in 10.0 mi North 10.4 mph - N/A   Clear
10:35 AM 35.6 °F 27.5 °F 26.6 °F 70% 29.48 in 10.0 mi North 11.5 mph - N/A   Clear
10:55 AM 35.6 °F 27.1 °F 26.6 °F 70% 29.49 in 10.0 mi North 12.7 mph - N/A   Clear
11:15 AM 37.4 °F 29.8 °F 26.6 °F 65% 29.49 in 10.0 mi North 11.5 mph - N/A   Clear
11:55 AM 39.2 °F 31.2 °F 26.6 °F 61% 29.48 in 10.0 mi North 13.8 mph - N/A   Mostly Cloudy
12:15 PM 39.2 °F 30.5 °F 26.6 °F 61% 29.46 in 10.0 mi NNW 16.1 mph - N/A   Scattered Clouds
12:35 PM 39.2 °F 30.8 °F 26.6 °F 61% 29.47 in 10.0 mi NNW 15.0 mph 20.7 mph N/A   Clear
12:55 PM 39.2 °F 32.0 °F 26.6 °F 61% 29.50 in 10.0 mi NNW 11.5 mph - N/A   Scattered Clouds
1:15 PM 37.4 °F 28.5 °F 26.6 °F 65% 29.48 in 10.0 mi NNW 15.0 mph 19.6 mph N/A   Partly Cloudy
1:35 PM 39.2 °F 30.2 °F 26.6 °F 61% 29.46 in 10.0 mi NNW 17.3 mph 20.7 mph N/A   Partly Cloudy
1:55 PM 39.2 °F 29.3 °F 26.6 °F 61% 29.44 in 10.0 mi NNW 20.7 mph 25.3 mph N/A   Scattered Clouds
2:15 PM 37.4 °F 26.6 °F 26.6 °F 65% 29.43 in 10.0 mi NNW 21.9 mph 28.8 mph N/A   Scattered Clouds
2:35 PM 39.2 °F 29.6 °F 26.6 °F 61% 29.44 in 10.0 mi North 19.6 mph - N/A   Mostly Cloudy
2:55 PM 37.4 °F 27.2 °F 26.6 °F 65% 29.43 in 10.0 mi North 19.6 mph 23.0 mph N/A   Mostly Cloudy
3:35 PM 37.4 °F 26.9 °F 26.6 °F 65% 29.42 in 10.0 mi North 20.7 mph 25.3 mph N/A   Scattered Clouds
3:55 PM 37.4 °F 28.9 °F 26.6 °F 65% 29.44 in 10.0 mi North 13.8 mph 25.3 mph N/A   Scattered Clouds
4:15 PM 37.4 °F 28.5 °F 26.6 °F 65% 29.46 in 10.0 mi North 15.0 mph 19.6 mph N/A   Mostly Cloudy
4:55 PM 37.4 °F 29.8 °F 26.6 °F 65% 29.47 in 10.0 mi North 11.5 mph 18.4 mph N/A   Overcast
5:55 PM 35.6 °F 25.9 °F 26.6 °F 70% 29.47 in 10.0 mi NW 16.1 mph - N/A   Overcast
6:15 PM 35.6 °F 26.6 °F 26.6 °F 70% 29.48 in 10.0 mi NNW 13.8 mph - N/A   Overcast
6:35 PM 35.6 °F 25.5 °F 26.6 °F 70% 29.48 in 10.0 mi NNW 17.3 mph - N/A   Overcast
6:55 PM 35.6 °F 25.5 °F 26.6 °F 70% 29.48 in 10.0 mi NNW 17.3 mph 24.2 mph N/A   Overcast
7:35 PM 35.6 °F 26.2 °F 26.6 °F 70% 29.49 in 10.0 mi NNW 15.0 mph 23.0 mph N/A   Overcast
7:55 PM 33.8 °F 22.8 °F 26.6 °F 75% 29.49 in 10.0 mi NW 18.4 mph - N/A   Overcast
8:15 PM 33.8 °F 23.2 °F 26.6 °F 75% 29.48 in 10.0 mi NW 17.3 mph 23.0 mph N/A   Overcast
8:35 PM 33.8 °F 23.5 °F 28.4 °F 81% 29.48 in 3.0 mi NW 16.1 mph 23.0 mph N/A   Overcast
8:55 PM 32.0 °F 21.2 °F 28.4 °F 87% 29.48 in 2.5 mi NW 16.1 mph - N/A   Overcast
9:15 PM 32.0 °F 21.2 °F 28.4 °F 87% 29.48 in 3.0 mi NW 16.1 mph - N/A   Overcast
9:35 PM 32.0 °F 21.2 °F 28.4 °F 87% 29.48 in 7.0 mi WNW 16.1 mph 20.7 mph N/A   Overcast
9:55 PM 30.2 °F 18.9 °F 28.4 °F 93% 29.49 in 9.0 mi WNW 16.1 mph 19.6 mph N/A   Overcast
10:15 PM 30.2 °F 18.5 °F 28.4 °F 93% 29.50 in 3.0 mi NW 17.3 mph 20.7 mph N/A   Overcast
10:35 PM 30.2 °F 18.9 °F 28.4 °F 93% 29.50 in 1.8 mi NW 16.1 mph - N/A   Overcast
10:55 PM 30.2 °F 19.8 °F 28.4 °F 93% 29.50 in 1.5 mi NW 13.8 mph - N/A   Overcast
11:15 PM 30.2 °F 19.3 °F 28.4 °F 93% 29.51 in 1.5 mi NW 15.0 mph 20.7 mph N/A   Overcast
11:35 PM 30.2 °F 19.3 °F 28.4 °F 93% 29.51 in 1.5 mi WNW 15.0 mph - N/A   Overcast
11:55 PM 30.2 °F 19.8 °F 28.4 °F 93% 29.50 in 2.5 mi WNW 13.8 mph - N/A   Overcast